カタログに戻る

CZ-6A DEB

運用中PO
NORAD 60879·DEBRIS·🇨🇳 China

打ち上げ Aug 6, 2024 から Taiyuan Satellite Launch Center

Loading…

次のパス (今後24時間)

TLE

最新Source: Space-Track

元期: Sep 14, 2026, 00:41 UTC

1 60879U 24140KJ  26257.02890960  .00000647  00000-0  30262-3 0  9990
2 60879  89.0254 267.5889 0050044 258.1034 101.4541 14.18547239107526

AllMySatでCZ-6A DEBをリアルタイム追跡

Download on the App Store